Regional Weather Roundup
Issued by NWS

Home | Current Version | Previous Version | Text Only | Print | Product List | Glossary Off
Versions: 1 2 3 4 5 6 7 8 9 10 11 12 13 14 15 16 17 18 19 20 21 22 23 24 25 26 27 28 29 30 31 32 33 34 35 36 37 38 39 40 41 42 43 44 45 46 47 48 49 50

000
ASUS43 KBIS 192002
RWRND

NORTH DAKOTA REGIONAL WEATHER ROUNDUP
NATIONAL WEATHER SERVICE BISMARCK ND
200 PM CST SUN NOV 19 2017

NOTE: "FAIR" INDICATES FEW OR NO CLOUDS BELOW 12,000 FEET WITH NO
SIGNIFICANT WEATHER AND/OR OBSTRUCTIONS TO VISIBILITY.


NDZ001>003-009>011-017-192100-
NORTHWEST NORTH DAKOTA

CITY           SKY/WX    TMP DP  RH WIND       PRES   REMARKS
WILLISTON      CLOUDY    44  24  45 SW9       29.77F
MINOT          CLOUDY    40  25  55 N5        29.77S
$$

NDZ018>021-031>035-040>046-192100-
SOUTHWEST NORTH DAKOTA

CITY           SKY/WX    TMP DP  RH WIND       PRES   REMARKS
BISMARCK       CLOUDY    48  27  44 CALM      29.81F
DICKINSON      CLOUDY    44  20  38 W9        29.78F
GARRISON         N/A     40  25  55 W14       29.78F
HETTINGER ARPT CLOUDY    44  19  36 W12       29.83F
$$

NDZ004>008-012>016-024-026-027-054-192100-
NORTHEAST NORTH DAKOTA

CITY           SKY/WX    TMP DP  RH WIND       PRES   REMARKS
GRAND FORKS    MOSUNNY   33  25  72 SW7       29.80F
GRND FRKS AFB  SUNNY     35  24  63 W6        29.80F
DEVILS LAKE    SUNNY     34  25  69 W10       29.79S
$$

NDZ022-023-025-028>030-036>039-047>053-192100-
SOUTHEAST NORTH DAKOTA

CITY           SKY/WX    TMP DP  RH WIND       PRES   REMARKS
FARGO          SUNNY     45  25  45 SW14      29.81F
JAMESTOWN      CLOUDY    43  26  51 W9        29.78F
$$




USA.gov is the U.S. government's official web portal to all federal, state and local government web resources and services.